Location: Zengebe
(1.4833°N, 32.5167°E)
Time: 22:55:16
(UTC+00:00)

GPS 2-15 Rocket1 - Pass Details

Date: 07 June 2020
Orbit: 624 x 675 km, 19.8° (Epoch: 10 July)

Event Time Altitude Azimuth Distance (km) Brightness Sun altitude
Exits shadow 01:32:43 38° 84° (E) 962 4.4 -30.4°
Drops below altitude 10° 01:35:45 10° 74° (ENE) 2,028 6.6 -29.7°
Sets 01:38:09 0° 72° (ENE) 2,946 7.7 -29.2°
